Tracking 20093 objects as of 15-Dec-2019
HD Live streaming from Space Station
objects crossing your sky now

SL-12 R/B(2)

Track SL-12 R/B(2) now!


NORAD ID: 16870
Int'l Code: 1986-007F
Perigee: 36,371.5 km
Apogee: 36,631.5 km
Inclination: 14.6 °
Period: 1,472.4 minutes
Semi major axis: 42872 km
RCS: 2.3779 m2 (large)
Launch date: January 17, 1986
Source: Commonwealth of Independent States (former USSR) (CIS)
Launch site: TYURATAM MISSILE AND SPACE COMPLEX (TTMTR)

Note: This is a ROCKET BODY
aabbcc
Your satellite tracking list
Your tracking list is empty




NASA's NSSDC Master Catalog

Two Line Element Set (TLE):
1 16870U 86007F   19347.16577008 -.00000140  00000-0  00000+0 0  9996
2 16870  14.6379 341.2437 0030322 110.8520  61.6388  0.97799103119362
Source of the keplerian elements: AFSPC